Temperature
12 12 12 12 12 12 13 13 13 13 13 14 15 15 15 15 16 16 16 16 16 17 17 17 17 17 17 16 16 16 16 16 16 16 16 16 16 16
11 12 12 12 12 12 12 12 12 12 12 13 14 14 15 15 15 15 16 16 16 16 16 17 16 17 17 16 16 16 16 16 16 16 16 16 16 16
11 11 12 12 12 12 12 12 12 12 12 13 13 14 14 14 15 15 15 15 16 16 16 16 16 16 16 16 16 16 16 16 16 16 16 16 16 16
11 11 11 11 12 12 12 12 12 12 12 12 13 13 13 14 14 14 15 15 15 16 16 16 16 16 16 16 16 16 16 16 16 16 16 15 15 15
11 11 11 11 11 11 11 11 11 12 12 12 12 13 13 13 14 14 14 15 15 15 15 16 16 16 16 16 16 16 16 16 16 16 15 15 15 15
11 11 11 11 11 11 11 11 11 11 11 11 12 12 12 13 13 13 14 14 14 15 15 15 15 15 15 16 16 16 16 16 16 15 15 15 15 15
11 11 11 11 11 11 11 11 11 11 11 11 11 12 12 12 12 13 13 13 14 14 14 15 15 15 15 15 15 16 16 16 15 15 15 15 15 15
11 11 11 11 11 11 11 11 11 11 11 11 11 11 12 12 12 12 12 12 13 14 14 14 14 14 15 15 15 15 15 15 15 15 15 15 15 15
11 11 11 11 11 11 11 11 11 11 11 11 11 11 11 11 11 12 12 12 12 13 13 13 14 14 14 15 15 15 15 15 15 15 15 15 15 15
11 11 11 11 11 11 11 11 11 11 11 11 11 11 11 11 11 11 11 11 12 12 12 12 13 14 14 14 14 15 15 15 15 15 15 15 15 15
12 11 11 11 11 11 11 11 11 11 11 11 11 11 11 11 11 11 11 11 11 12 12 12 13 13 14 14 14 14 14 14 14 14 14 14 14 14
12 12 11 11 11 11 11 11 11 11 11 11 11 11 11 11 11 11 11 11 11 11 12 12 12 12 12 13 14 14 14 14 14 14 14 14 14 14
12 12 11 11 11 11 11 11 11 11 11 11 11 11 11 11 11 11 11 11 11 11 11 11 11 11 11 12 12 13 13 13 13 14 14 14 14 13
12 12 12 11 11 11 11 11 11 11 11 11 11 11 11 11 11 11 11 11 11 11 11 11 11 11 11 11 11 12 12 13 13 13 13 14 13 13
12 12 12 11 11 11 11 11 11 11 11 11 11 11 11 11 11 11 11 11 11 11 11 11 11 11 11 11 11 11 11 12 12 12 12 13 13 13
12 12 11 11 11 11 11 11 10 10 10 10 10 11 11 11 11 11 11 11 11 11 11 11 11 11 11 11 11 11 11 11 11 12 12 12 12 12
12 11 11 11 11 11 10 10 10 10 10 10 10 10 10 10 10 10 10 10 10 10 11 11 11 11 11 11 11 11 11 11 11 11 11 11 12 12
11 11 11 10 10 10 10 10 10 10 10 10 10 10 10 10 10 10 10 10 10 10 10 10 10 10 10 11 11 11 11 11 11 11 11 11 11 12
10 10 9 9 9 9 9 9 9 9 9 9 9 9 9 9 9 9 10 10 10 10 10 10 10 10 10 10 10 11 10 11 11 11 11 11 11 11
9 8 8 8 8 8 8 8 8 9 9 9 9 9 9 9 9 9 9 9 9 9 10 10 10 10 9 9 10 10 10 10 10 10 10 10 10 11
7 7 7 7 7 7 7 7 7 7 8 8 8 8 8 8 8 8 8 9 9 9 9 9 9 9 9 9 9 10 10 10 10 10 10 10 10 10
6 6 6 6 6 6 6 6 6 6 6 6 7 7 7 7 7 7 7 7 8 8 8 9 9 9 9 9 9 9 10 10 10 10 9 9 9 10
5 5 5 5 4 4 5 5 5 5 5 5 5 5 5 6 6 6 6 7 7 7 8 8 9 9 9 9 9 9 9 9 9 9 9 9 9 9
Wind_Speed
3 3 2 2 1 1 1 2 2 1 2 3 2 2 2 4 6 7 9 12 15 17 19 20 21 22 23 24 24 24 24 24 24 24 23 23 22 21
3 3 3 2 2 2 1 1 2 3 3 2 3 3 4 4 6 6 8 11 14 16 18 19 20 21 21 23 24 24 24 24 24 24 24 24 23 22
4 3 4 3 3 2 1 1 2 3 4 4 3 3 3 4 5 6 7 8 9 13 16 18 19 20 20 21 22 23 24 24 24 24 25 25 25 24
4 4 5 4 4 2 2 2 2 3 3 4 3 3 4 4 5 5 5 6 7 10 14 16 17 19 20 20 21 22 23 23 24 24 25 25 25 25
4 4 4 4 4 3 3 2 2 2 3 3 4 3 3 3 3 4 5 4 5 8 10 13 16 17 19 20 20 21 22 23 24 24 24 25 25 25
4 4 4 4 4 4 3 3 3 2 2 3 3 3 3 3 3 3 4 3 4 5 6 9 11 15 17 19 20 21 22 22 23 24 24 25 25 25
5 4 5 5 5 3 3 3 2 2 2 3 3 3 3 3 3 2 4 4 4 3 4 4 5 6 8 14 17 20 21 22 23 23 24 25 25 26
5 5 6 5 6 6 7 5 3 3 3 3 3 4 5 4 4 3 3 3 4 2 2 4 3 6 7 8 13 17 20 22 23 23 24 25 25 26
4 5 4 4 6 4 6 7 6 6 5 4 6 6 5 4 4 5 5 5 6 4 3 5 4 7 7 9 15 17 19 20 21 22 23 24 25 26
5 5 5 6 5 5 4 5 6 6 6 5 6 7 7 7 6 6 6 7 6 5 4 5 4 5 6 6 13 17 18 19 20 21 22 23 24 25
5 5 5 6 8 7 5 6 7 6 7 8 9 10 12 13 9 6 6 6 6 5 4 4 4 4 4 6 8 14 17 18 19 20 21 22 23 23
5 5 7 7 8 8 4 5 8 8 7 8 7 8 8 8 9 7 6 7 5 4 4 4 3 2 3 3 4 5 8 13 16 18 19 20 20 16
5 4 4 7 8 8 6 5 9 9 7 7 7 7 6 5 5 5 6 6 7 6 4 3 3 3 4 4 3 4 5 6 7 10 15 18 20 17
6 5 4 6 7 8 6 8 11 10 5 6 6 6 6 6 5 5 6 7 8 9 7 5 5 5 6 7 5 3 4 5 6 7 7 10 15 19
5 5 5 5 6 5 7 10 8 4 4 5 6 6 5 5 5 5 5 5 6 7 8 8 8 7 7 7 6 5 4 4 6 7 7 8 8 9
2 2 3 4 3 5 6 5 4 4 4 5 6 6 5 5 5 4 4 5 5 5 5 7 8 8 8 8 8 7 6 5 4 6 7 7 8 9
2 3 3 4 5 5 5 5 4 4 4 4 5 6 6 6 6 4 4 4 4 5 6 4 4 6 8 7 7 8 7 7 7 7 7 8 8 9
5 4 4 4 4 5 6 6 5 5 5 5 5 6 6 6 7 5 4 5 7 7 7 5 4 3 3 5 8 9 8 8 7 7 7 8 9 7
7 5 4 4 4 5 5 5 5 6 6 6 6 6 6 6 6 6 6 6 7 7 7 5 4 4 6 7 5 8 7 6 6 6 7 7 8 7
5 5 5 5 5 5 5 5 5 6 6 6 6 7 6 6 7 7 6 7 7 7 7 5 5 6 7 7 5 4 8 7 6 7 6 4 3 2
4 4 4 4 4 5 5 5 5 5 6 6 7 8 8 8 8 8 8 9 8 7 8 8 7 8 6 4 5 5 4 8 8 6 5 4 4 3
3 3 3 4 4 4 4 4 4 5 5 5 6 7 7 7 9 10 9 9 8 8 9 8 6 4 4 6 9 8 5 4 5 7 7 6 5 6
3 3 3 4 4 4 4 4 5 5 5 5 6 6 7 7 8 8 9 10 10 10 10 9 6 5 7 8 9 8 7 5 4 4 5 5 7 6
Wind_Direction
360 360 350 322 312 273 236 200 194 254 279 281 291 306 309 290 275 257 248 245 240 236 235 233 232 230 229 228 227 227 227 226 226 223 220 220 221 220
355 6 357 332 324 315 283 242 213 215 254 271 268 287 302 299 291 275 260 255 248 243 240 237 235 232 231 230 228 226 225 225 225 224 222 220 220 220
356 354 341 332 332 324 313 269 235 219 248 274 271 284 285 290 300 291 274 259 255 248 242 240 237 234 233 231 229 226 225 224 224 224 223 221 220 219
342 341 333 337 335 322 307 277 250 232 234 267 281 286 277 282 283 284 277 269 257 254 245 241 238 235 233 231 230 227 225 224 224 223 222 222 221 219
317 319 316 325 323 316 306 291 272 259 233 256 279 277 283 290 294 287 278 271 269 265 254 245 239 237 235 232 230 229 226 224 223 222 221 222 222 220
304 301 299 290 283 291 296 287 276 273 260 264 275 280 279 289 289 290 295 281 279 277 262 252 244 239 237 233 229 228 226 224 223 222 221 220 220 218
311 309 303 302 298 288 292 284 269 266 266 269 279 281 284 292 288 283 288 298 285 257 262 256 244 241 238 236 233 230 227 224 223 222 221 220 218 216
299 307 308 310 320 330 330 325 299 264 261 258 269 278 282 274 271 274 283 298 294 274 261 269 239 248 242 234 232 229 228 225 222 221 221 220 218 214
272 287 302 311 324 314 320 328 323 309 283 259 264 269 273 265 270 278 273 268 266 268 279 275 250 254 248 239 233 230 229 228 226 223 222 221 218 216
256 260 269 287 297 300 301 309 303 295 285 273 254 262 264 265 256 264 274 277 273 262 233 260 257 253 255 240 237 233 230 228 226 224 223 221 219 216
262 254 254 268 288 300 298 300 303 297 286 272 270 275 279 280 275 268 266 270 277 267 218 232 251 260 261 255 242 235 233 232 229 226 225 222 219 216
274 262 260 264 281 293 284 288 296 297 304 308 301 297 289 283 279 256 253 262 268 270 227 215 239 244 272 261 248 238 234 235 233 231 228 224 218 217
268 270 262 271 280 288 288 270 279 291 293 295 297 297 294 284 274 259 245 249 257 258 238 217 242 234 245 271 276 246 237 239 233 234 230 224 218 212
251 258 264 280 287 295 296 292 298 304 293 292 291 291 291 290 284 275 263 252 250 256 258 242 251 251 257 264 265 255 240 236 234 237 232 220 219 216
246 258 277 294 306 309 310 315 317 307 297 291 288 285 279 279 288 290 283 273 267 260 257 250 252 256 256 257 256 250 255 247 232 235 234 228 222 216
270 310 330 342 339 323 326 330 322 297 291 287 290 290 291 291 290 288 288 296 293 286 264 249 247 249 257 258 256 256 242 236 229 229 236 236 227 219
79 54 35 17 7 357 345 333 326 326 319 299 296 301 303 300 297 294 282 283 280 288 295 285 260 253 253 255 258 255 251 248 242 235 235 243 238 226
81 56 37 22 4 352 345 339 334 334 328 320 313 307 305 304 303 301 290 287 288 285 284 285 290 286 271 255 236 249 250 249 246 235 229 238 243 232
63 51 34 16 1 351 343 339 334 331 327 326 324 321 317 312 308 306 304 298 294 290 285 277 269 271 281 284 257 220 235 245 239 237 234 233 239 229
46 39 25 8 360 356 348 343 340 343 347 344 340 336 329 322 316 311 307 302 302 301 295 280 262 258 262 274 275 251 219 229 237 239 236 231 237 222
30 23 13 3 357 353 349 346 350 355 353 352 350 345 340 334 324 316 310 303 298 296 295 290 274 259 262 261 265 261 239 222 227 232 218 213 217 209
7 358 352 346 343 340 341 342 344 347 347 346 342 338 335 332 328 325 321 313 304 295 290 288 280 263 248 256 264 267 261 240 233 234 227 216 206 207
324 322 321 319 316 315 317 322 327 327 326 326 327 327 327 327 325 322 321 320 315 309 304 298 288 266 258 257 262 263 256 246 233 233 240 245 239 239
Height
1487 1487 1487 1487 1487 1487 1488 1488 1489 1488 1488 1489 1490 1491 1491 1492 1492 1493 1495 1497 1499 1501 1504 1506 1508 1511 1513 1516 1518 1520 1523 1525 1528 1530 1532 1534 1537 1538
1486 1486 1486 1485 1485 1485 1486 1486 1486 1487 1486 1486 1486 1487 1487 1488 1488 1489 1490 1491 1493 1495 1497 1500 1502 1504 1507 1509 1512 1515 1517 1519 1522 1524 1527 1529 1531 1533
1485 1485 1484 1484 1484 1483 1483 1484 1484 1484 1483 1483 1483 1483 1483 1483 1484 1484 1485 1486 1487 1489 1491 1493 1495 1498 1500 1503 1505 1508 1511 1513 1516 1518 1521 1523 1525 1528
1484 1483 1483 1482 1482 1481 1481 1481 1481 1481 1481 1480 1480 1480 1479 1479 1479 1479 1480 1480 1481 1483 1484 1486 1488 1491 1493 1496 1498 1501 1504 1506 1509 1511 1514 1517 1519 1522
1483 1482 1481 1481 1480 1480 1479 1479 1479 1478 1478 1477 1476 1476 1476 1475 1475 1475 1475 1475 1476 1477 1478 1480 1482 1484 1486 1488 1490 1493 1496 1499 1501 1504 1507 1510 1513 1515
1482 1481 1480 1479 1479 1478 1478 1477 1476 1476 1475 1474 1473 1473 1472 1472 1471 1470 1470 1470 1471 1471 1472 1474 1475 1477 1479 1481 1483 1486 1488 1491 1493 1496 1499 1502 1505 1508
1481 1480 1479 1478 1477 1476 1476 1475 1474 1473 1472 1472 1471 1470 1469 1468 1468 1467 1466 1465 1466 1466 1467 1468 1468 1470 1472 1474 1476 1478 1480 1483 1486 1488 1491 1494 1497 1500
1480 1479 1478 1477 1476 1475 1474 1473 1472 1471 1470 1469 1468 1467 1466 1465 1465 1464 1463 1462 1461 1462 1461 1462 1463 1463 1465 1466 1468 1470 1472 1475 1477 1480 1483 1486 1489 1492
1479 1478 1477 1475 1474 1473 1472 1471 1470 1469 1468 1467 1465 1464 1463 1462 1461 1460 1459 1458 1457 1457 1457 1455 1457 1457 1458 1459 1461 1463 1464 1466 1469 1471 1474 1477 1480 1483
1477 1476 1475 1473 1472 1471 1470 1469 1468 1467 1465 1464 1462 1461 1460 1459 1458 1456 1455 1454 1452 1452 1453 1451 1450 1451 1452 1452 1454 1455 1457 1458 1460 1462 1465 1468 1471 1474
1475 1474 1473 1471 1470 1468 1467 1466 1465 1464 1462 1460 1459 1457 1456 1455 1454 1452 1451 1450 1447 1447 1448 1446 1445 1445 1445 1445 1447 1448 1449 1450 1452 1454 1456 1458 1461 1464
1473 1472 1470 1469 1468 1466 1464 1462 1461 1460 1458 1457 1456 1454 1453 1451 1450 1448 1447 1445 1444 1442 1442 1442 1441 1441 1439 1438 1439 1440 1441 1442 1444 1445 1447 1449 1452 1454
1469 1469 1468 1466 1465 1463 1462 1460 1458 1456 1454 1453 1451 1450 1449 1448 1446 1444 1443 1441 1440 1438 1438 1438 1436 1435 1435 1433 1433 1434 1435 1435 1436 1437 1439 1440 1442 1444
1466 1465 1464 1463 1462 1460 1459 1457 1455 1453 1451 1449 1448 1447 1445 1444 1442 1440 1439 1437 1436 1434 1434 1433 1431 1430 1429 1427 1426 1426 1427 1428 1429 1429 1431 1432 1433 1435
1462 1461 1460 1459 1458 1457 1455 1453 1452 1450 1448 1446 1444 1443 1442 1440 1438 1436 1434 1433 1431 1430 1429 1428 1426 1425 1423 1422 1421 1420 1421 1421 1422 1423 1423 1424 1425 1426
1457 1457 1456 1455 1454 1453 1452 1450 1448 1446 1444 1443 1441 1439 1438 1436 1435 1433 1430 1428 1426 1425 1424 1423 1421 1419 1417 1416 1415 1414 1414 1415 1415 1416 1416 1417 1418 1418
1453 1453 1452 1451 1450 1449 1448 1447 1445 1443 1441 1440 1438 1436 1434 1432 1431 1429 1427 1424 1423 1420 1419 1418 1416 1414 1412 1411 1409 1408 1408 1408 1408 1409 1409 1409 1410 1411
1450 1449 1448 1447 1446 1445 1444 1443 1441 1440 1438 1436 1434 1432 1430 1429 1427 1425 1423 1421 1418 1416 1415 1413 1411 1409 1407 1405 1405 1403 1402 1402 1402 1402 1402 1402 1402 1403
1447 1446 1445 1444 1443 1442 1440 1439 1438 1436 1434 1433 1431 1429 1427 1425 1423 1421 1419 1417 1414 1412 1410 1409 1407 1405 1403 1400 1399 1399 1397 1396 1396 1395 1395 1395 1395 1396
1445 1444 1443 1442 1440 1439 1438 1436 1434 1432 1431 1429 1427 1425 1423 1421 1419 1417 1415 1413 1410 1408 1406 1404 1403 1401 1399 1397 1394 1393 1392 1391 1390 1389 1389 1388 1388 1389
1444 1443 1441 1440 1438 1437 1435 1433 1431 1429 1427 1425 1423 1421 1419 1416 1414 1412 1410 1408 1406 1403 1401 1399 1398 1396 1394 1392 1389 1387 1387 1386 1385 1384 1383 1383 1383 1383
1443 1441 1440 1438 1436 1434 1432 1430 1428 1426 1423 1421 1419 1416 1414 1412 1410 1407 1405 1403 1400 1398 1396 1394 1392 1390 1389 1386 1384 1382 1381 1380 1379 1378 1378 1378 1377 1377
1442 1440 1438 1436 1434 1432 1430 1427 1425 1422 1420 1417 1414 1412 1410 1407 1405 1402 1400 1398 1395 1392 1390 1387 1386 1384 1382 1380 1379 1377 1375 1374 1374 1373 1372 1372 1372 1373